Preview of NWS' New Version of Forecast
This preview is not operational and should not be used for support decisions.

Regional Weather Roundup (RWR)

Issued by National Weather Service (NWS)

                            
000
ASUS43 KLSX 232007
RWRMO 

WEATHER SUMMARY FOR MISSOURI
NATIONAL WEATHER SERVICE SPRINGFIELD MO
300 PM CDT THU MAY 23 2019

NOTE: "FAIR" INDICATES FEW OR NO CLOUDS BELOW 12,000 FEET WITH NO
       SIGNIFICANT WEATHER AND/OR OBSTRUCTIONS TO VISIBILITY.
       CURRENT SKY AND/OR WEATHER CONDITIONS ARE NOT AVAILABLE FOR
       CHILLICOTHE AND FARMINGTON.

MOZ001>031-035>038-043-044-053-054-232100-
...NORTHERN AND WESTERN MISSOURI...
  
CITY           SKY/WX    TMP DP  RH WIND       PRES   REMARKS
KANSAS CTY INT CLOUDY    74  58  57 E8        30.07F                  
KANSAS C DTWN  MOSUNNY   78  58  49 SE6       30.05F                  
LEE'S SUMMIT   MOSUNNY   75  62  64 SE7       30.07F                  
ST JOSEPH      PTSUNNY   74  53  48 E5        30.07F                  
CHILLICOTHE      N/A     75  54  47 CALM      30.09F                  
KIRKSVILLE     CLOUDY    75  55  49 S6        30.10F                  
     
$$
MOZ066>068-077>081-088>096-101>105-232100-
...SOUTHWEST MISSOURI...
  
CITY           SKY/WX    TMP DP  RH WIND       PRES   REMARKS
SPRINGFIELD    PTSUNNY   84  70  62 S14       30.06F                  
JOPLIN         MOSUNNY   84  72  67 S13       30.04F                  
BRANSON        MOSUNNY   86  68  54 S7        30.10F                  
               
$$
MOZ032>034-039>042-045>050-055>058-069>072-232100-
...CENTRAL MISSOURI...  
  
CITY           SKY/WX    TMP DP  RH WIND       PRES   REMARKS
COLUMBIA       MOSUNNY   76  64  66 VRB3      30.09F                  
ROLLA          PTSUNNY   76  67  73 NW6       30.11F                  
SEDALIA        MOSUNNY   72  67  84 S6        30.09F                  
WHITEMAN AFB   PTSUNNY   74  67  79 CALM      30.04F                  
WARRENSBURG    PTSUNNY   73  63  68 SE8       30.08S                  
OSAGE BEACH    PTSUNNY   76  69  79 E3        30.09F                  
               
$$
MOZ051-052-059>065-232100-
...EAST CENTRAL MISSOURI...
  
CITY           SKY/WX    TMP DP  RH WIND       PRES   REMARKS
ST LOUIS INTL  CLOUDY    78  67  68 NW7       30.09R                  
SPIRIT OF STL  CLOUDY    78  68  71 NW6       30.08R                  
ST CHARLES     MOSUNNY   77  67  71 W5        30.08R                  
                   
$$
MOZ072>076-082>087-097>100-106>115-232100-
...SOUTH CENTRAL AND SOUTHEAST MISSOURI...
  
CITY           SKY/WX    TMP DP  RH WIND       PRES   REMARKS
CAPE GIRARDEAU FAIR      85  72  65 SW13      30.08F HX  91           
FARMINGTON     CLOUDY    81  74  79 W6        30.10R                  
POPLAR BLUFF   FAIR      86  74  67 S14       30.10F HX  94           
WEST PLAINS    MOSUNNY   85  71  63 S12G18    30.11F HX  90           
                                       
$$